CW0262 Weather Reports


Display with metric or nautical units.
time (UTC)temp
F
wind
direction
speed
MPH
gust
MPH
rain 1hr
in
rain 24hr
in
rain mn
in
humidity
%
barometer
mb
20260905021704 84 197 0.0 0.0 0.00 0.08 0.08 92 1014.9
20260905021204 84 197 0.0 0.0 0.00 0.08 0.08 92 1014.9
20260905020704 84 197 0.0 0.0 0.00 0.08 0.08 92 1014.9
20260905020204 84 197 0.0 0.0 0.00 0.08 0.08 91 1014.9
20260905014704 84 198 0.0 3.0 0.00 0.08 0.08 90 1014.9
20260905013704 84 201 0.0 3.0 0.00 0.08 0.08 89 1014.9
20260905013203 84 199 0.0 2.0 0.00 0.08 0.08 89 1014.9
20260905011704 85 232 0.0 0.0 0.00 0.08 0.08 89 1014.9
20260905011204 85 232 0.0 0.0 0.00 0.08 0.08 89 1014.9
20260905010704 85 232 0.0 2.0 0.00 0.08 0.08 89 1014.9
20260905010205 85 232 0.0 2.0 0.00 0.08 0.08 89 1014.9
20260905004703 85 243 0.0 2.0 0.00 0.08 0.08 89 1014.9
20260905004204 85 239 2.0 5.0 0.00 0.08 0.08 89 1014.9
20260905003704 85 241 1.0 2.0 0.00 0.08 0.08 89 1014.9
20260905003204 86 208 0.0 3.0 0.00 0.08 0.08 89 1013.9
20260905001703 86 165 0.0 6.0 0.00 0.08 0.08 88 1013.9
20260905001204 86 201 3.0 6.0 0.00 0.08 0.08 88 1013.9
20260904234204 87 186 5.0 8.0 0.00 0.08 0.08 86 1013.9
20260904233704 87 197 3.0 7.0 0.00 0.08 0.08 85 1013.9
20260904231703 87 193 1.0 3.0 0.00 0.08 0.08 83 1013.9
20260904231204 87 172 5.0 9.0 0.00 0.08 0.08 82 1013.9
20260904230704 88 186 3.0 7.0 0.00 0.08 0.08 82 1013.9
20260904230204 88 157 5.0 12.0 0.00 0.08 0.08 81 1012.9
20260904224704 88 155 6.0 9.0 0.00 0.08 0.08 82 1012.9
20260904224203 88 162 7.0 10.0 0.00 0.08 0.08 81 1012.9
20260904223705 88 155 7.0 10.0 0.00 0.08 0.08 82 1012.9
20260904223204 89 188 9.0 13.0 0.00 0.08 0.08 82 1012.9
20260904221704 89 170 7.0 10.0 0.00 0.08 0.08 81 1012.9
20260904221203 89 188 5.0 8.0 0.00 0.08 0.08 80 1012.9
20260904220703 89 132 5.0 8.0 0.00 0.08 0.08 80 1012.9
20260904220204 89 168 4.0 12.0 0.00 0.08 0.08 80 1012.9
20260904214204 89 190 8.0 15.0 0.00 0.08 0.08 78 1012.9
20260904213703 89 167 8.0 12.0 0.00 0.08 0.08 77 1012.9
20260904213203 89 168 5.0 9.0 0.00 0.08 0.08 82 1013.9
20260904211204 89 136 5.0 9.0 0.00 0.08 0.08 82 1013.9
20260904210704 89 127 7.0 12.0 0.00 0.08 0.08 83 1013.9
20260904204204 90 144 7.0 13.0 0.00 0.12 0.08 81 1013.9
20260904201703 90 161 6.0 8.0 0.00 0.12 0.08 78 1013.9
20260904201204 89 164 5.0 9.0 0.00 0.12 0.08 75 1013.9
20260904200704 90 125 6.0 9.0 0.00 0.12 0.08 74 1013.9
20260904200204 90 140 3.0 8.0 0.00 0.12 0.08 75 1013.9
20260904194204 90 141 5.0 8.0 0.00 0.12 0.08 77 1013.9
20260904193204 90 178 5.0 8.0 0.00 0.12 0.08 83 1013.9
20260904191703 89 153 7.0 10.0 0.00 0.12 0.08 82 1014.9
20260904190704 89 130 5.0 9.0 0.00 0.12 0.08 82 1014.9
20260904190204 89 131 5.0 10.0 0.00 0.12 0.08 82 1014.9
20260904184704 88 145 4.0 6.0 0.00 0.12 0.08 85 1014.9
20260904183704 88 130 3.0 5.0 0.00 0.12 0.08 86 1014.9
20260904183203 88 135 2.0 6.0 0.00 0.12 0.08 86 1014.9
20260904181704 87 183 5.0 6.0 0.00 0.12 0.08 84 1014.9
20260904181204 87 195 3.0 6.0 0.00 0.12 0.08 83 1014.9
20260904180204 87 168 3.0 9.0 0.04 0.12 0.08 82 1014.9
20260904174703 87 168 2.0 6.0 0.08 0.12 0.08 82 1014.9
20260904174204 86 189 1.0 6.0 0.08 0.12 0.08 83 1014.9
20260904173704 86 134 3.0 8.0 0.08 0.12 0.08 84 1014.9
20260904173204 86 129 6.0 8.0 0.08 0.12 0.08 84 1014.9
20260904171704 86 144 3.0 6.0 0.08 0.12 0.08 91 1015.9
20260904171204 85 161 6.0 8.0 0.08 0.12 0.08 91 1015.9
20260904170704 86 118 5.0 8.0 0.08 0.12 0.08 92 1015.9
20260904164705 89 159 8.0 12.0 0.00 0.04 0.00 79 1015.9
20260904164203 89 160 12.0 15.0 0.00 0.04 0.00 77 1015.9
20260904163704 90 155 3.0 6.0 0.00 0.04 0.00 80 1015.9
20260904163204 90 136 3.0 6.0 0.00 0.04 0.00 80 1015.9
20260904161704 90 173 1.0 6.0 0.00 0.04 0.00 81 1015.9
20260904161203 90 160 4.0 6.0 0.00 0.04 0.00 81 1015.9
20260904160704 90 206 4.0 6.0 0.00 0.04 0.00 80 1015.9
20260904160203 90 134 5.0 7.0 0.00 0.04 0.00 79 1015.9
20260904154703 90 195 5.0 8.0 0.00 0.04 0.00 82 1015.9
20260904154204 89 166 5.0 8.0 0.00 0.04 0.00 84 1015.9
20260904153704 89 179 3.0 8.0 0.00 0.04 0.00 86 1015.9
20260904153203 89 257 1.0 7.0 0.00 0.04 0.00 85 1015.9
20260904151203 88 240 5.0 8.0 0.00 0.04 0.00 88 1015.9
20260904150703 88 211 5.0 9.0 0.00 0.04 0.00 88 1015.9
20260904150204 88 216 6.0 9.0 0.00 0.04 0.00 88 1015.9
20260904144705 88 221 3.0 6.0 0.00 0.04 0.00 89 1015.9
20260904144204 87 178 5.0 8.0 0.00 0.04 0.00 88 1015.9
20260904143703 88 205 5.0 8.0 0.00 0.04 0.00 88 1015.9
20260904143204 88 198 3.0 9.0 0.00 0.04 0.00 88 1015.9
20260904141704 87 165 6.0 8.0 0.00 0.04 0.00 91 1015.9
20260904141203 87 194 5.0 8.0 0.00 0.04 0.00 92 1015.9
20260904140705 87 211 6.0 9.0 0.00 0.04 0.00 95 1015.9
20260904140204 87 199 5.0 8.0 0.00 0.04 0.00 98 1014.9
20260904134703 86 215 3.0 8.0 0.00 0.04 0.00 99 1014.9
20260904134203 85 229 7.0 9.0 0.00 0.04 0.00 99 1014.9
20260904133704 85 222 6.0 8.0 0.00 0.04 0.00 99 1014.9
20260904133203 85 204 5.0 8.0 0.00 0.04 0.00 100 1014.9
20260904131703 83 232 5.0 8.0 0.00 0.04 0.00 100 1014.9
20260904131204 83 194 5.0 6.0 0.00 0.04 0.00 100 1014.9
20260904130704 83 233 3.0 6.0 0.00 0.04 0.00 100 1014.9
20260904130204 83 225 4.0 8.0 0.00 0.04 0.00 100 1014.9
20260904124703 82 229 3.0 5.0 0.00 0.04 0.00 100 1014.9
20260904124204 82 242 3.0 6.0 0.00 0.04 0.00 100 1014.9
20260904123703 81 213 3.0 5.0 0.00 0.04 0.00 100 1014.9
20260904123203 81 232 3.0 5.0 0.00 0.04 0.00 100 1014.9
20260904121203 80 201 0.0 0.0 0.00 0.04 0.00 100 1014.9
20260904120704 79 201 0.0 0.0 0.00 0.04 0.00 100 1014.9
20260904120203 79 201 0.0 0.0 0.00 0.04 0.00 100 1014.9
20260904114204 78 201 0.0 0.0 0.00 0.04 0.00 100 1013.9
20260904113704 78 202 0.0 0.0 0.00 0.04 0.00 100 1013.9
20260904113203 78 201 0.0 0.0 0.00 0.04 0.00 100 1013.9
20260904111704 78 201 0.0 0.0 0.00 0.04 0.00 100 1013.9
20260904111204 78 200 0.0 0.0 0.00 0.04 0.00 100 1013.9
20260904110703 78 200 0.0 0.0 0.00 0.04 0.00 100 1013.9
20260904110204 78 201 0.0 0.0 0.00 0.04 0.00 100 1013.9
20260904104704 78 201 0.0 0.0 0.00 0.04 0.00 100 1013.9
20260904104203 78 200 0.0 0.0 0.00 0.04 0.00 100 1013.9
20260904103704 78 200 0.0 0.0 0.00 0.04 0.00 100 1013.9
20260904103204 78 201 0.0 0.0 0.00 0.04 0.00 100 1013.9
20260904101704 78 200 0.0 0.0 0.00 0.04 0.00 100 1013.9
20260904100703 78 200 0.0 0.0 0.00 0.04 0.00 100 1013.9
20260904100204 78 200 0.0 0.0 0.00 0.04 0.00 100 1013.9
20260904094703 78 200 0.0 0.0 0.00 0.04 0.00 100 1013.9
20260904093705 78 201 0.0 0.0 0.00 0.04 0.00 100 1013.9
20260904093203 78 200 0.0 0.0 0.00 0.04 0.00 100 1012.9
20260904091704 78 200 0.0 0.0 0.00 0.04 0.00 100 1012.9
20260904090704 78 200 0.0 0.0 0.00 0.04 0.00 100 1012.9
20260904090203 78 200 0.0 0.0 0.00 0.04 0.00 100 1012.9
20260904084703 78 200 0.0 0.0 0.00 0.04 0.00 100 1012.9
20260904084203 78 201 0.0 0.0 0.00 0.04 0.00 100 1012.9
20260904083704 78 200 0.0 0.0 0.00 0.04 0.00 100 1012.9
20260904080704 79 200 0.0 0.0 0.00 0.04 0.00 100 1012.9
20260904080204 79 200 0.0 0.0 0.00 0.04 0.00 100 1012.9
20260904074704 79 201 0.0 0.0 0.00 0.04 0.00 100 1012.9
20260904074203 79 200 0.0 0.0 0.00 0.04 0.00 100 1012.9
20260904073704 79 200 0.0 0.0 0.00 0.04 0.00 100 1012.9
20260904073203 79 201 0.0 0.0 0.00 0.04 0.00 100 1012.9
20260904071703 79 200 0.0 0.0 0.00 0.04 0.00 100 1012.9
20260904071203 79 200 0.0 0.0 0.00 0.04 0.00 100 1012.9
20260904070703 79 200 0.0 0.0 0.00 0.04 0.00 100 1012.9
20260904070204 79 200 0.0 0.0 0.00 0.04 0.00 100 1012.9
20260904064704 79 200 0.0 0.0 0.00 0.04 0.00 100 1012.9
20260904063704 79 200 0.0 0.0 0.00 0.04 0.00 100 1012.9
20260904063204 79 200 0.0 3.0 0.00 0.04 0.00 100 1013.9
20260904061704 79 187 0.0 0.0 0.00 0.04 0.00 100 1013.9
20260904061205 79 175 0.0 0.0 0.00 0.04 0.00 100 1013.9
20260904060705 80 167 0.0 0.0 0.00 0.04 0.00 100 1013.9
20260904060203 80 167 0.0 0.0 0.00 0.04 0.00 100 1013.9
20260904054703 80 167 0.0 0.0 0.00 0.04 0.00 100 1013.9
20260904054203 80 167 0.0 0.0 0.00 0.04 0.00 100 1013.9
20260904053203 80 156 0.0 0.0 0.00 0.04 0.00 100 1013.9
20260904051703 80 145 0.0 0.0 0.00 0.08 0.00 100 1013.9
20260904051203 80 145 0.0 0.0 0.00 0.08 0.00 100 1013.9
20260904050704 80 149 0.0 2.0 0.00 0.08 0.00 100 1013.9
20260904050203 80 159 0.0 3.0 0.00 0.08 0.00 100 1013.9
20260904044703 80 143 0.0 3.0 0.00 0.31 0.00 100 1013.9
20260904044205 80 145 1.0 3.0 0.00 0.31 0.00 100 1013.9
20260904043703 80 135 3.0 5.0 0.00 0.31 0.00 100 1013.9
20260904043203 80 135 0.0 6.0 0.00 0.31 0.00 100 1013.9
20260904041704 80 147 3.0 5.0 0.00 0.31 0.00 100 1013.9
20260904041204 80 145 3.0 6.0 0.00 0.31 0.00 100 1013.9
20260904040704 80 145 5.0 6.0 0.00 0.31 0.00 100 1013.9
20260904040203 80 120 5.0 8.0 0.00 0.31 0.00 100 1014.9
20260904034204 79 126 5.0 7.0 0.00 0.31 0.31 100 1013.9
20260904033204 79 120 2.0 3.0 0.00 0.31 0.31 100 1013.9
20260904031704 79 81 0.0 2.0 0.00 0.31 0.31 100 1013.9
20260904031203 79 86 0.0 0.0 0.00 0.31 0.31 100 1013.9
20260904030703 79 211 0.0 0.0 0.00 0.31 0.31 100 1013.9
20260904030203 80 211 0.0 0.0 0.00 0.31 0.31 100 1013.9
20260904024703 80 211 0.0 0.0 0.00 0.31 0.31 100 1013.9
20260904024203 80 211 0.0 0.0 0.00 0.31 0.31 100 1013.9
20260904023704 80 211 0.0 0.0 0.00 0.31 0.31 100 1013.9
20260904023203 80 211 0.0 0.0 0.00 0.31 0.31 100 1014.9